Location: Unspecified
(0.0000°N, 0.0000°E)
Time: 03:29:04
(UTC+02:00)

N. Korean satellite - Visible Passes

Search period start: 22 June 2021 00:00
Search period end: 02 July 2021 00:00
Orbit: 450 x 499 km, 97.2° (Epoch: 21 June)

Date Brightness Start Highest point End Pass type
(mag) Time Alt. Az. Time Alt. Az. Time Alt. Az.
22 Jun 7.3 07:21:07 10° NNW 07:24:26 34° W 07:27:49 10° SW visible
23 Jun 6.7 06:53:35 10° NNE 06:57:14 76° E 07:00:54 10° S visible
24 Jun 8.7 06:26:57 10° NE 06:30:01 25° E 06:33:05 10° SSE visible
25 Jun 7.9 07:32:52 10° NNW 07:35:47 23° W 07:38:43 10° SW visible
26 Jun 6.6 07:04:55 10° N 07:08:33 66° W 07:12:12 10° SSW visible
27 Jun 7.9 06:37:53 10° NNE 06:41:19 39° E 06:44:46 10° S visible
28 Jun 9.5 06:12:02 10° ENE 06:14:06 14° E 06:16:09 10° SE visible
29 Jun 7.1 07:16:23 10° N 07:19:50 41° W 07:23:18 10° SSW visible
30 Jun 7.0 06:48:58 10° NNE 06:52:36 63° E 06:56:13 10° S visible
01 Jul 9.0 06:22:30 10° NE 06:25:21 22° E 06:28:12 10° SSE visible
